Flag for Germany Weather past 2 weeks in Haltern am See, North Rhine-Westphalia, Germany

Now
64 °F

Sprinkles. Passing clouds.


Feels Like: 64 °F
Forecast: 64 / 79 °F
Wind: 7 mph from East

Location: Dortmund / Wickede

Current Time: Jul 29, 2014 at 12:35:42 AM

Latest Report: Jul 28, 2014 at 10:50 PM


Visibility: 4 mi

Pressure: 29.89 "Hg

Humidity: 88%

Dew point: 61 °F

Location of Haltern am SeeLocation

Historic Weather in Haltern am See — Graph

°F

Haltern am See temperature yesterday

Maximum temperature yesterday: 79 °F (at 1:20 PM)
Minimum temperature yesterday: 61 °F (at 5:20 AM)
Average temperature yesterday: 70 °F

Past Weeks' High & Low Weather Summary

 TemperatureHumidityPressure
High90 °F (Jul 19, 1:20 PM)100% (Jul 21, 12:50 PM)30.18 "Hg (Jul 21, 12:50 PM)
Low55 °F (Jul 15, 5:20 AM)22% (Jul 19, 2:50 PM)29.74 "Hg (Jul 13, 10:20 PM)
Average71 °F65%29.99 "Hg
* Reported Jul 13 10:20 PM — Jul 28 10:50 PM, Haltern am See, Weather by CustomWeather, © 2014

Note: Actual official high and low records may vary slightly from our data, if they occured in-between our weather recording intervals... More about our weather records

Advertising

Haltern am See weather history for previous 24 hours

 ConditionsComfort  
Time TempWeatherWind HumidityBarometerVisibility
10:50 PM
Jul 28
64 °FSprinkles. Passing clouds.7 mph88%29.89 "Hg4 mi
10:20 PM64 °FThundershowers. Partly sunny.3 mph88%29.89 "Hg4 mi
9:50 PM66 °FScattered showers. Partly sunny.12 mph88%29.92 "Hg5 mi
9:20 PM66 °FThundershowers. Partly sunny.3 mph88%29.89 "Hg5 mi
8:50 PM66 °FSprinkles. Partly sunny.5 mph88%29.89 "Hg4 mi
8:20 PM66 °FSprinkles. Partly sunny.3 mph88%29.86 "Hg5 mi
7:50 PM68 °FScattered showers. Partly sunny.3 mph83%29.89 "Hg4 mi
7:20 PM68 °FSprinkles. Partly sunny.6 mph88%29.86 "Hg3 mi
6:50 PM70 °FScattered clouds.5 mph83%29.86 "HgN/A
6:20 PM70 °FScattered clouds.6 mph78%29.86 "HgN/A
5:50 PM70 °FScattered clouds.6 mph78%29.83 "HgN/A
5:20 PM70 °FThundershowers. Partly sunny.9 mph73%29.83 "Hg4 mi
4:50 PM75 °FScattered clouds.5 mph74%29.80 "HgN/A
4:20 PM77 °FScattered clouds.3 mph69%29.83 "HgN/A
3:50 PM75 °FSprinkles. Scattered clouds.3 mph74%29.83 "HgN/A
3:20 PM77 °FRain showers. Partly sunny.5 mph65%29.86 "HgN/A
2:50 PM79 °FSunny.5 mph54%29.83 "Hg10 mi
2:20 PM77 °FScattered showers. Scattered clouds.9 mph57%29.86 "HgN/A
1:50 PM79 °FScattered showers. Partly sunny.13 mph54%29.86 "Hg6 mi
1:20 PM79 °FScattered clouds.7 mph54%29.86 "HgN/A
12:50 PM77 °FPassing clouds.9 mph61%29.86 "HgN/A
12:20 PM77 °FPassing clouds.12 mph61%29.89 "HgN/A
11:50 AM77 °FPassing clouds.9 mph61%29.89 "HgN/A
11:20 AM75 °FPassing clouds.9 mph65%29.89 "HgN/A
10:50 AM73 °FClear.8 mph69%29.89 "Hg6 mi
10:20 AM72 °FScattered clouds.7 mph69%29.89 "Hg6 mi
9:50 AM70 °FPartly sunny.8 mph73%29.92 "Hg5 mi
9:20 AM68 °FClear.6 mph78%29.92 "Hg6 mi
8:50 AM66 °FClear.7 mph83%29.92 "Hg5 mi
8:20 AM66 °FClear.5 mph83%29.92 "Hg6 mi
7:50 AM66 °FClear.3 mph78%29.92 "Hg5 mi
7:20 AM66 °FSunny.2 mph83%29.92 "Hg10 mi
6:50 AM63 °FSunny.2 mph88%29.92 "Hg10 mi
6:20 AM63 °FClear.3 mph88%29.92 "Hg10 mi
5:50 AM61 °FClear.2 mph88%29.92 "Hg6 mi
5:20 AM61 °FCool.5 mph88%29.92 "Hg4 mi
Weather by CustomWeather, © 2014

See weather overviewHow to use our weather pages